OpenBCM V1.13 (Linux)

Packet Radio Mailbox

DB0FHN

[JN59NK Nuernberg]

 Login: GUEST





  
I0OJJ  > KEPS     16.03.25 07:08l 326 Lines 15594 Bytes #999 (0) @ AMSAT
BID : ORB25075.1
Read: DJ6UX GUEST
Subj: 2Line Orbital Elements 25075.AMSAT
Path: DB0FHN<DB0RKB<DK0WUE<PD0LPM<PI8ZTM<IQ5KG<I0OJJ
Sent: 250316/0425z @:I0OJJ.ITA.EU [Rome] obcm1.08-6-g5b69
From: I0OJJ @ I0OJJ.ITA.EU (Gustavo)
To:   KEPS @ AMSAT
X-Info: This message was generated automatically


QST de W1STR

AMSAT Orbital Elements for Amateur Satellites in TLE Format
From Orbital Analysis Office
New England Sci-Tech STEM Education Center
Natick, MA March 16, 2025
To all radio amateurs


These element sets describe the orbits of various satellites 
in use by the amateur radio community. For details see:
www.amsat.org/keplerian-elements-formats/

A daily update of element sets is available at:
www.amsat.org/tle/daily-bulletin.txt
or without bulletin text:
www.amsat.org/tle/dailytle.txt


AO-07
1 07530U 74089B   25074.63523285 -.00000044  00000-0  18299-4 0  9997
2 07530 101.9954  77.9795 0011877 286.6197 189.1044 12.53687173303054
UO-11
1 14781U 84021B   25074.86495975  .00004445  00000-0  47912-3 0  9990
2 14781  97.7455  43.0024 0006050 258.0873 101.9666 14.88909040209886
AO-27
1 22825U 93061C   25074.62133167  .00000344  00000-0  14862-3 0  9990
2 22825  98.7476 135.7094 0008482  12.6849 347.4545 14.30748937641428
FO-29
1 24278U 96046B   25074.61688917  .00000040  00000-0  77752-4 0  9998
2 24278  98.5847 339.7918 0349497 205.1286 153.2488 13.53240171411145
NOAA-15
1 25338U 98030A   25074.84494270  .00000416  00000-0  18898-3 0  9995
2 25338  98.5451 102.0041 0009204 247.2794 112.7414 14.26909241396177
GO-32
1 25397U 98043D   25074.56610058  .00000299  00000-0  14953-3 0  9994
2 25397  98.9627  51.9280 0002391  92.8035 267.3417 14.24272004386267
ISS
1 25544U 98067A   25074.88807804  .00017650  00000-0  31586-3 0  9996
2 25544  51.6359  49.1331 0006399  25.9029 334.2279 15.50047759500699
NO-44
1 26931U 01043C   25074.51130102  .00000580  00000-0  24828-3 0  9990
2 26931  67.0530 350.3616 0005639 266.9116  93.1341 14.31654822224940
SO-50
1 27607U 02058C   25074.48389586  .00003501  00000-0  45928-3 0  9996
2 27607  64.5526 106.2186 0046397 355.0449   5.0190 14.81131933196471
CO-55
1 27844U 03031E   25074.81356702  .00000945  00000-0  43125-3 0  9998
2 27844  98.6795  84.1864 0010862  78.3350 281.9047 14.23872134126460
CO-57
1 27848U 03031J   25074.58170260  .00000779  00000-0  36331-3 0  9995
2 27848  98.6823  84.0274 0010786  93.9313 266.3098 14.23224286126188
RS-22
1 27939U 03042A   25074.90987579  .00003436  00000-0  55602-3 0  9998
2 27939  98.3185 242.3455 0010508 281.7533 208.2935 14.71936959148224
NOAA-18
1 28654U 05018A   25074.83463855  .00000452  00000-0  26325-3 0  9991
2 28654  98.8463 155.2671 0014207  17.4033 342.7624 14.13542186 21639
CO-58
1 28895U 05043F   25074.39080675  .00005444  00000-0  90591-3 0  9994
2 28895  98.2344 217.7600 0014444 216.6779 143.3439 14.70413129 34277
CO-65
1 32785U 08021C   25074.43725450  .00012886  00000-0  96328-3 0  9990
2 32785  97.7786  45.0912 0012320 131.7214 228.5067 15.02855934916131
AAUSAT2
1 32788U 08021F   25074.43554839  .00189353  00000-0  27034-2 0  9995
2 32788  97.6060  67.7811 0003893 104.8002 255.3683 15.55600206919850
CO-66
1 32791U 08021J   25074.44478034  .00026385  00000-0  14019-2 0  9996
2 32791  97.7224  52.7851 0007183  99.2307 260.9737 15.15253125917430
RS-30
1 32953U 08025A   25074.85252710  .00000030  00000-0  14293-3 0  9990
2 32953  82.4981 280.5094 0018783 231.4866 128.4530 12.43160111762885
NOAA-19
1 33591U 09005A   25074.82704688  .00000422  00000-0  24906-3 0  9998
2 33591  99.0071 139.0195 0012946 243.5600 116.4244 14.13309524829990
SRMSAT
1 37841U 11058D   25074.36378660  .00000691  00000-0  23172-3 0  9999
2 37841  19.9730 316.2675 0011761 196.3208 319.5216 14.11383757692913
ZACUBE-1
1 39417U 13066B   25074.84398461  .00013530  00000-0  12098-2 0  9995
2 39417  97.7722  32.4340 0044791 341.4988  18.4602 14.95222679612094
Delfi-N3xt
1 39428U 13066N   25074.73215168  .00017608  00000-0  18663-2 0  9991
2 39428  97.8374 353.4472 0085765 283.6053  75.5621 14.86450625606494
GOMX-1
1 39430U 13066Q   25074.84204858  .00004921  00000-0  77194-3 0  9999
2 39430  97.6955 298.7366 0135092 106.5973 255.0118 14.67062175602834
LO-74
1 39440U 13066AA  25074.41821562  .00009759  00000-0  10116-2 0  9994
2 39440  97.8426  19.6840 0065566 103.6059 257.2471 14.88604112608612
AO-73
1 39444U 13066AE  25074.84571470  .00020440  00000-0  16087-2 0  9998
2 39444  97.7607  36.6414 0040076 318.6169  41.2020 15.00208501611310
DTUSAT-2
1 40030U 14033W   25074.39794550  .00017956  00000-0  12263-2 0  9992
2 40030  98.0465  42.2056 0009724   4.9969 355.1352 15.06201592583415
EO-80
1 40032U 14033Y   25074.42262940  .00016877  00000-0  11504-2 0  9999
2 40032  98.0368  42.0053 0006470 302.6196  57.4405 15.06309133583397
LILACSAT-2
1 40908U 15049K   25074.77516639  .00022099  00000-0  63121-3 0  9990
2 40908  97.5140  93.1745 0012061 106.4868 253.7702 15.35954939525046
IO-86
1 40931U 15052B   25038.81889873  .00001817  00000-0  15548-3 0  9993
2 40931   6.0001 108.1159 0012838 187.7041 172.2889 14.78568669506492
Horyu-4
1 41340U 16012D   25074.10019374  .00038692  00000-0  12300-2 0  9991
2 41340  30.9990 351.4442 0008151 253.0862 106.8888 15.31379249499496
Lapan A3
1 41603U 16040E   25074.85946073  .00007502  00000-0  26934-3 0  9996
2 41603  97.1396  82.8697 0010246 205.6978 154.3755 15.28898520484689
CAS-2T
1 41847U 16066G   25074.72143556  .00003395  00000-0  48862-3 0  9995
2 41847  98.4265 149.9239 0348497  78.2631 285.7434 14.43141380438635
CAS-4B
1 42759U 17034B   25074.47125243  .00072272  00000-0  12082-2 0  9993
2 42759  43.0097 110.6455 0016256  45.3066 314.9115 15.50856040429179
CAS-4A
1 42761U 17034D   25074.55543925  .00073470  00000-0  11995-2 0  9999
2 42761  43.0133 107.9759 0017476  52.2873 307.9569 15.51487681429208
TechnoSat
1 42829U 17042E   25074.73389669  .00008399  00000-0  66565-3 0  9998
2 42829  97.3899 247.5697 0012500 209.2557 150.7968 15.00730462417848
AO-91
1 43017U 17073E   25074.62579656  .00015941  00000-0  83937-3 0  9990
2 43017  97.5411 307.6195 0181667  98.9366 263.2472 15.02486172396296
S-Net D
1 43186U 18014G   25074.62162435  .00011732  00000-0  71723-3 0  9990
2 43186  97.5701 338.4475 0010041 150.4502 209.7297 15.10368722389393
S-Net B
1 43187U 18014H   25074.62597337  .00011386  00000-0  69637-3 0  9990
2 43187  97.5706 338.4189 0010982 146.7279 213.4643 15.10352590389397
S-Net A
1 43188U 18014J   25074.62229609  .00011852  00000-0  72434-3 0  9992
2 43188  97.5714 338.5548 0010773 147.4250 212.7646 15.10372840389397
S-Net C
1 43189U 18014K   25074.69443440  .00011311  00000-0  69160-3 0  9993
2 43189  97.5731 338.6253 0012577 141.3712 218.8420 15.10350331387959
Ten-Koh
1 43677U 18084G   25074.42592137  .00007776  00000-0  63284-3 0  9992
2 43677  98.0954 243.2448 0010353 190.9237 169.1762 14.99795638347326
PO-101
1 43678U 18084H   25074.89169494  .00007192  00000-0  62000-3 0  9997
2 43678  98.0969 247.8030 0008063 201.4274 158.6611 14.97607205347555
QO-100
1 43700U 18090A   25074.83241420  .00000144  00000-0  00000+0 0  9992
2 43700   0.0130 135.1373 0001579 254.2132 109.7826  1.00275090 23321
MinXSS-2
1 43758U 18099A   25074.58143192  .00029778  00000-0  13129-2 0  9996
2 43758  97.5124 140.5184 0013898 100.9333 259.3467 15.21657764343873
AO-95
1 43770U 18099N   25074.12852533  .00019867  00000-0  10724-2 0  9992
2 43770  97.5032 133.2531 0012395 148.6264 211.5710 15.14705993343458
RANGE-A
1 43773U 18099R   25074.70310699  .00010060  00000-0  66060-3 0  9992
2 43773  97.4596 125.6070 0013012 124.3323 235.9138 15.07752844343275
MOVE-II
1 43780U 18099Y   25074.61688510  .00115594  00000-0  22354-2 0  9995
2 43780  97.4762 145.6777 0003624 126.6181 233.5402 15.47327635344391
SNUSat 2
1 43782U 18099AA  25074.60703493  .00015663  00000-0  89992-3 0  9992
2 43782  97.4718 131.1520 0014130  93.3429 266.9418 15.12504430343498
SnugLite
1 43784U 18099AC  25074.70498909  .00019552  00000-0  10474-2 0  9997
2 43784  97.4530 130.6581 0005001 100.1017 260.0779 15.15034361343624
ITASat 1
1 43786U 18099AE  25074.59098415  .00013525  00000-0  80729-3 0  9999
2 43786  97.4682 130.8823 0016174 140.3091 219.9326 15.11132464343468
EAGLET 1
1 43790U 18099AJ  25074.58712422  .00009317  00000-0  61079-3 0  9995
2 43790  97.4876 131.0880 0013734 122.5869 237.6687 15.07829612343109
ESEO
1 43792U 18099AL  25074.55172359  .00005290  00000-0  40678-3 0  9991
2 43792  97.4593 125.4236 0012072  95.1649 265.0954 15.02056812342902
CSIM
1 43793U 18099AM  25074.27489720  .00129090  00000-0  24530-2 0  9997
2 43793  97.4949 147.3856 0004990  88.6338 271.5483 15.47778111344184
JO-97
1 43803U 18099AX  25074.58461134  .00023456  00000-0  11607-2 0  9992
2 43803  97.4772 134.5432 0009090  90.4181 269.8094 15.17767534343711
Suomi 100
1 43804U 18099AY  25074.60432273  .00019584  00000-0  10238-2 0  9994
2 43804  97.4842 134.0759 0014385  90.0268 270.2613 15.15820987343669
ISAT
1 43879U 18111D   25074.56578258  .00036000  00000-0  14416-2 0  9994
2 43879  97.6018 347.3193 0011663 129.7148 230.5119 15.24901532340564
UWE-4
1 43880U 18111E   25074.27955718  .00029141  00000-0  12754-2 0  9995
2 43880  97.5962 346.0494 0014345 143.2124 217.0099 15.21909718340487
Sparrow
1 43881U 18111F   25074.54476828  .00037080  00000-0  14430-2 0  9990
2 43881  97.6146 349.8685 0008118 159.6453 200.5109 15.25883420340645
Prox-1
1 44339U 19036A   25074.85452411  .00021348  00000-0  29097-2 0  9997
2 44339  23.9968 263.8957 0006824 168.6651 191.4000 14.77165132305409
SONATE
1 44400U 19038Q   25074.81450019  .00116713  00000-0  12145-2 0  9993
2 44400  97.7058  92.2169 0009029 183.7014 176.4179 15.64154452316050
Taurus 1
1 44530U 19059C   25074.87701116  .00019292  00000-0  36996-2 0  9997
2 44530  98.5950 210.3662 0009394 292.0151  68.0051 14.63750847291398
